sat.trackr.live / text

‹ back to catalog

STARLINK-6113

NORAD 56113 · 2023-046W

PAYLOAD ACTIVE UNKNOWN

§ Identity

Operator
Country
US
Launch date
2023-03-29
Launch site
AFETR
Launch vehicle
Mass (kg)
RCS (m²)

Purposes: comms

External: N2YO · Heavens-Above · Gunter

§ Orbital elements

Epoch: 2026-09-20T01:43:17.655168Z

Period
94.27 min
Inclination
43.0035°
Eccentricity
0.0001651
Mean motion
15.27574152 rev/d
Perigee alt
481.9 km
Apogee alt
484.2 km
Semi-major
6,861.2 km
B*
9.6238e-6
RAAN
143.4498°
Arg perigee
267.2183°
Mean anomaly
92.8479°
Rev number
19,176

§ Raw data

STARLINK-61131 56113U 23046W   26263.07173212  .00000003  00000+0  96238-5 0  99982 56113  43.0035 143.4498 0001651 267.2183  92.8479 15.27574152191760

JSON: /api/v1/satellites/56113 · /tle

For live sub-satellite position, see the globe view (requires WebGL).

§ Visibility from observer

Set your observer location to see the next 7 days of passes ≥ 10°. The values pass through the URL so the page stays shareable.

No JS? Fill the form by hand. The geolocation button needs JavaScript.